Stations météo

Publicité
Cazaux, France (7502): Température de l'air & dewpoint: 17.01.2019 23:00:00 - 23.01.2019 23:00:00 (CET)Cazaux, France (7502): Température de l'air 5cm: 17.01.2019 23:00:00 - 23.01.2019 23:00:00 (CET)Cazaux, France (7502): Température de l'air -20cm & Température de l'air -100cm: 17.01.2019 23:00:00 - 23.01.2019 23:00:00 (CET)Cazaux, France (7502): Vitesse du vent & gusts: 17.01.2019 23:00:00 - 23.01.2019 23:00:00 (CET)Cazaux, France (7502): Direction du vent: 17.01.2019 23:00:00 - 23.01.2019 23:00:00 (CET)Cazaux, France (7502): reduced air pressure: 17.01.2019 23:00:00 - 23.01.2019 23:00:00 (CET)Cazaux, France (7502): visibility: 17.01.2019 23:00:00 - 23.01.2019 23:00:00 (CET)Cazaux, France (7502): Quantités de précipitations: 17.01.2019 23:00:00 - 23.01.2019 23:00:00 (CET)
Date & Time tt [°C] td [°C] tt 5cm [°C] tt -20cm [°C] tt -100cm [°C] ff [km/h] ff [knt] fx [km/h] fx [knt] dd ppp [hPa] vv [km] rr [mm]
23.01.2019 23:00:00 6,6 0,9 5,4 9,0 12,5 18 10 29 16 N 1008,5 50 0,0
23.01.2019 22:00:00 7,1 1,4 5,7 9,0 12,5 20 11 40 21 NNW 1008,0 54 0,0
23.01.2019 21:00:00 7,4 1,5 5,4 9,0 12,5 24 13 49 26 NNW 1007,5 60 0,0
23.01.2019 20:00:00 7,4 2,7 5,3 9,0 12,5 17 9 37 20 N 1006,7 54 0,0
23.01.2019 19:00:00 7,2 3,8 4,9 9,0 12,5 18 10 34 18 NNW 1005,8 49 0,0
23.01.2019 18:00:00 6,3 3,5 5,2 9,0 12,5 29 16 59 32 NNW 1005,3 6 0,4
23.01.2019 17:00:00 7,7 2,4 6,4 8,9 12,5 19 10 43 23 NNW 1005,1 60 0,0
23.01.2019 16:00:00 7,4 3,6 5,9 8,9 12,5 15 8 47 25 NNW 1004,8 59 0,4
23.01.2019 15:00:00 7,8 2,7 6,7 8,9 12,5 27 15 44 24 NNW 1004,7 16 0,0
23.01.2019 14:00:00 8,5 2,3 8,4 8,8 12,5 24 13 42 23 NNW 1004,6 60 0,0
23.01.2019 13:00:00 9,1 3,3 8,2 8,8 12,5 24 13 42 23 NNW 1004,0 60 0,0
23.01.2019 12:00:00 8,4 3,6 7,6 8,8 12,5 27 15 56 30 NNW 1004,1 58 0,0
23.01.2019 11:00:00 8,2 5,1 7,3 8,8 12,5 19 10 39 21 NNW 1003,1 53 0,0
23.01.2019 10:00:00 7,8 6,1 7,0 8,8 12,6 24 13 62 33 N 1002,3 20 0,2
23.01.2019 09:00:00 8,2 6,3 7,3 8,8 12,5 29 16 55 30 NNW 1001,1 3,4 1,2
23.01.2019 08:00:00 8,1 7,5 6,9 8,8 12,6 8 4 17 9 NW 1000,0 20 0,0
23.01.2019 07:00:00 7,7 6,9 7,0 8,7 12,5 13 7 24 13 NNW 998,9 45 0,9
23.01.2019 06:00:00 7,9 7,0 7,2 8,7 12,6 7 4 17 9 NNW 998,7 4,7 2,8
23.01.2019 05:00:00 8,8 7,6 7,3 8,7 12,6 12 6 21 11 W 999,1 13 1,4
23.01.2019 04:00:00 8,4 6,5 7,4 8,7 12,6 11 6 31 17 WNW 1001,3 9 1,2
23.01.2019 03:00:00 9,2 6,6 7,7 8,7 12,6 20 11 44 24 WNW 1002,9 34 0,0
23.01.2019 02:00:00 9,0 6,4 7,1 8,7 12,6 13 7 31 17 WNW 1003,4 43 0,2
23.01.2019 01:00:00 8,3 6,4 6,7 8,7 12,6 10 6 31 17 W 1004,2 13 0,0
23.01.2019 00:00:00 7,9 6,2 5,9 8,7 12,6 13 7 24 13 WNW 1005,0 35 0,0
22.01.2019 23:00:00 8,1 5,6 6,6 8,7 12,6 18 10 34 19 WNW 1005,4 15 0,4
22.01.2019 22:00:00 8,2 6,0 5,9 8,7 12,6 13 7 23 12 W 1006,1 46 0,0
22.01.2019 21:00:00 7,1 5,9 5,8 8,7 12,6 6 3 17 9 WSW 1007,1 35 1,0
22.01.2019 20:00:00 7,0 5,1 6,0 8,6 12,6 8 4 45 25 WSW 1008,2 18 0,4
22.01.2019 19:00:00 8,5 4,5 5,7 8,6 12,6 11 6 23 12 WNW 1008,7 44 0,0
22.01.2019 18:00:00 7,1 4,4 5,6 8,5 12,6 7 4 37 20 WNW 1009,2 40 0,2
22.01.2019 17:00:00 8,3 5,0 7,0 8,5 12,6 14 8 32 17 W 1009,7 13 0,0
22.01.2019 16:00:00 7,7 5,5 7,2 8,5 12,7 7 4 21 11 WNW 1009,9 19 0,2
22.01.2019 15:00:00 7,5 4,8 6,8 8,5 12,7 18 10 56 30 NNW 1010,3 32 0,4
22.01.2019 14:00:00 9,4 6,5 8,3 8,4 12,7 13 7 22 12 NNW 1010,1 20 0,0
22.01.2019 13:00:00 7,2 5,5 6,7 8,5 12,7 5 3 31 17 NNW 1010,7 44 1,6
22.01.2019 12:00:00 6,7 5,8 5,9 8,5 12,7 4 2 15 8 SSW 1010,9 45 0,0
22.01.2019 11:00:00 5,9 5,3 5,1 8,5 12,6 15 8 33 18 N 1011,3 3,0 4,5
22.01.2019 10:00:00 5,3 4,6 4,1 8,6 12,6 11 6 30 16 SSW 1012,0 8 2,2
22.01.2019 09:00:00 4,4 3,5 3,4 8,6 12,6 13 7 24 13 S 1013,5 7 1,0
22.01.2019 08:00:00 3,9 2,6 3,1 8,7 12,7 9 5 19 10 S 1014,7 13 0,4
22.01.2019 07:00:00 3,6 2,0 2,3 8,7 12,7 9 5 18 10 S 1015,8 37 0,0
22.01.2019 06:00:00 2,9 1,4 1,1 8,8 12,7 6 4 19 10 SSW 1016,7 44 0,0
22.01.2019 05:00:00 2,8 1,2 0,8 8,9 12,7 11 6 19 10 S 1017,9 44 0,0
22.01.2019 04:00:00 1,7 0,2 0,4 9,0 12,7 11 6 17 9 S 1019,4 36 0,0
22.01.2019 03:00:00 1,3 0,1 -1,9 9,1 12,7 10 5 16 8 S 1020,1 26 0,0
22.01.2019 02:00:00 0,0 -1,0 -3,3 9,1 12,7 8 4 12 7 S 1021,2 23 0,0
22.01.2019 01:00:00 -0,5 -1,5 -3,5 9,2 12,7 5 3 9 5 S 1022,2 22 0,0
22.01.2019 00:00:00 0,3 -0,7 -3,3 9,2 12,7 3 1 7 4 ESE 1023,0 19 0,0
21.01.2019 23:00:00 -0,7 -1,8 -3,0 9,3 12,7 5 3 10 5 SSE 1022,9 43 0,0
21.01.2019 22:00:00 1,0 -0,2 -2,4 9,3 12,6 0 0 6 3 N 1023,8 7 0,0
21.01.2019 21:00:00 2,1 -0,2 -1,2 9,3 12,7 0 0 4 2 N 1023,8 8 0,0
21.01.2019 20:00:00 3,5 -0,5 0,1 9,3 12,7 0 0 4 2 N 1023,8 60 0,0
21.01.2019 19:00:00 4,7 -0,1 3,4 9,3 12,7 2 1 10 5 NNE 1023,7 60 0,0
21.01.2019 18:00:00 5,4 -0,4 4,8 9,3 12,7 7 4 21 12 NNE 1023,6 60 0,0
21.01.2019 17:00:00 5,9 -0,4 6,1 9,2 12,7 14 7 22 12 N 1023,3 60 0,0
21.01.2019 16:00:00 6,3 0,0 7,5 9,2 12,7 14 7 22 12 N 1023,4 60 0,0
21.01.2019 15:00:00 6,4 0,1 7,8 9,3 12,7 10 5 22 12 N 1023,7 60 0,0
21.01.2019 14:00:00 6,2 -0,5 7,3 9,3 12,7 15 8 22 12 N 1024,0 60 0,0
21.01.2019 13:00:00 5,6 -0,5 6,3 9,3 12,7 13 7 24 13 N 1024,4 60 0,0
21.01.2019 12:00:00 4,9 0,8 4,7 9,3 12,7 9 5 25 13 N 1024,7 60 0,0
21.01.2019 11:00:00 4,7 1,0 4,5 9,4 12,7 14 8 24 13 N 1024,6 60 0,0
21.01.2019 10:00:00 4,6 1,4 4,3 9,4 12,7 10 5 21 12 N 1023,8 41 0,0
21.01.2019 09:00:00 4,4 2,3 4,0 9,4 12,7 7 4 17 9 N 1023,2 34 0,0
21.01.2019 08:00:00 4,7 2,9 4,1 9,5 12,7 12 7 26 14 N 1022,6 25 0,0
21.01.2019 07:00:00 5,1 3,4 4,6 9,5 12,7 17 9 25 13 N 1022,1 26 0,0
21.01.2019 06:00:00 5,6 4,1 4,5 9,5 12,7 14 8 20 11 N 1021,5 23 0,0
21.01.2019 05:00:00 5,6 4,4 4,5 9,5 12,7 11 6 16 9 N 1021,1 18 0,0
21.01.2019 04:00:00 6,2 5,2 5,3 9,5 12,7 13 7 18 10 N 1020,7 17 0,0
21.01.2019 03:00:00 6,1 5,1 3,9 9,6 12,7 9 5 14 7 N 1020,4 24 0,0
21.01.2019 02:00:00 6,3 4,8 4,5 9,6 12,7 8 5 12 6 NNE 1020,3 26 0,0
21.01.2019 01:00:00 6,9 5,5 5,7 9,6 12,7 9 5 16 9 N 1020,2 36 0,0
21.01.2019 00:00:00 6,5 5,3 4,9 9,6 12,7 6 4 13 7 N 1019,8 42 0,0
20.01.2019 23:00:00 6,4 4,7 5,0 9,6 12,7 8 4 18 10 N 1019,1 55 0,0
20.01.2019 22:00:00 7,6 5,4 4,0 9,6 12,7 11 6 18 10 NNE 1018,5 16 0,0
20.01.2019 21:00:00 7,8 5,4 6,9 9,6 12,7 7 4 16 9 N 1018,1 46 0,0
20.01.2019 20:00:00 7,8 4,7 5,6 9,5 12,7 10 5 14 7 NNW 1017,5 55 0,0
20.01.2019 19:00:00 7,0 4,0 4,8 9,4 12,7 8 4 22 12 NNW 1016,8 60 0,0
20.01.2019 18:00:00 8,6 4,0 7,0 9,4 12,7 16 8 26 14 N 1016,0 60 0,0
20.01.2019 17:00:00 9,7 5,9 8,6 9,3 12,7 16 9 40 22 N 1015,5 58 0,0
20.01.2019 16:00:00 9,8 7,0 9,6 9,2 12,7 13 7 29 16 NNW 1014,9 18 0,4
20.01.2019 15:00:00 11,8 5,9 12,4 9,1 12,7 16 9 24 13 NNW 1014,3 60 0,0
20.01.2019 14:00:00 11,2 6,5 11,6 9,1 12,7 9 5 19 10 NNW 1014,3 60 0,0
20.01.2019 13:00:00 10,7 6,6 12,5 9,1 12,7 10 6 19 10 N 1014,5 57 0,0
20.01.2019 12:00:00 9,9 7,8 11,0 9,1 12,7 7 4 14 8 N 1014,5 47 0,0
20.01.2019 11:00:00 7,5 7,1 7,9 9,1 12,7 4 2 5 3 N 1013,7 32 0,0
20.01.2019 10:00:00 6,6 6,3 5,4 9,1 12,7 0 0 9 5 N 1012,9 23 0,0
20.01.2019 09:00:00 5,9 5,5 5,7 9,2 12,7 6 4 11 6 E 1012,1 14 0,0
20.01.2019 08:00:00 6,7 6,4 6,1 9,2 12,7 0 0 10 6 N 1011,4 35 1,0
20.01.2019 07:00:00 7,1 6,8 4,8 9,2 12,7 9 5 21 11 NNW 1011,0 4,8 2,8
20.01.2019 06:00:00 4,7 4,4 3,2 9,4 12,7 6 3 8 5 S 1010,3 17 0,2
20.01.2019 05:00:00 3,3 3,0 1,2 9,4 12,7 6 3 8 5 SSW 1010,2 16 0,0
20.01.2019 04:00:00 2,0 1,6 -0,5 9,5 12,7 0 0 3 2 N 1010,3 0,5 0,0
20.01.2019 03:00:00 3,1 2,7 -0,1 9,5 12,7 0 0 3 2 N 1010,0 0,4 0,0
20.01.2019 02:00:00 4,3 3,9 0,1 9,5 12,7 0 0 5 3 N 1009,8 0,8 0,0
20.01.2019 01:00:00 4,4 3,8 0,6 9,6 12,7 0 0 4 2 N 1009,8 0,5 0,0
20.01.2019 00:00:00 3,7 3,1 0,1 9,6 12,7 2 1 4 2 NW 1009,5 3,2 0,0
19.01.2019 23:00:00 5,4 4,8 3,0 9,6 12,7 3 2 7 4 E 1009,3 2,9 0,0
19.01.2019 22:00:00 6,1 5,4 4,6 9,6 12,7 5 3 13 7 ENE 1008,9 13 0,0
19.01.2019 21:00:00 5,9 4,9 3,5 9,6 12,7 4 2 7 4 NE 1008,6 8 0,0
19.01.2019 20:00:00 6,5 5,3 4,0 9,5 12,7 3 1 6 3 NE 1008,8 11 0,0
19.01.2019 19:00:00 7,9 6,5 5,3 9,5 12,7 4 2 6 3 E 1008,7 30 0,0
19.01.2019 18:00:00 8,5 5,8 6,0 9,4 12,7 5 3 15 8 S 1008,9 40 0,0
19.01.2019 17:00:00 11,1 7,0 11,7 9,3 12,7 10 6 16 8 SSW 1009,1 51 0,0
19.01.2019 16:00:00 11,0 7,7 10,6 9,2 12,7 6 3 20 11 SW 1009,4 42 0,0
19.01.2019 15:00:00 10,9 7,8 11,7 9,2 12,7 16 8 32 17 SW 1010,0 44 0,0
19.01.2019 14:00:00 11,6 8,1 11,5 9,1 12,7 23 13 34 18 SW 1010,9 49 0,0
19.01.2019 13:00:00 11,2 8,2 11,1 9,2 12,7 15 8 22 12 SSW 1012,2 44 0,0
19.01.2019 12:00:00 10,4 8,2 10,6 9,1 12,7 9 5 24 13 SSW 1012,7 10 0,0
19.01.2019 11:00:00 10,5 8,8 9,7 9,2 12,7 9 5 14 8 S 1012,8 42 0,0
19.01.2019 10:00:00 7,8 7,4 5,7 9,2 12,7 10 5 17 9 S 1012,8 26 0,0
19.01.2019 09:00:00 5,8 5,4 2,7 9,1 12,7 6 3 11 6 SSW 1012,8 7 0,0
19.01.2019 08:00:00 5,7 5,1 3,0 9,2 12,7 7 4 11 6 S 1012,6 9 0,0
19.01.2019 07:00:00 7,4 7,0 6,8 9,2 12,7 10 6 33 18 S 1012,5 23 0,2
19.01.2019 06:00:00 7,3 6,9 6,9 9,2 12,7 13 7 22 12 S 1012,4 10 0,0
19.01.2019 05:00:00 7,2 6,6 6,4 9,2 12,8 11 6 25 14 S 1012,9 18 0,2
19.01.2019 04:00:00 6,6 5,9 6,1 9,2 12,8 9 5 16 9 SSE 1013,4 10 0,2
19.01.2019 03:00:00 6,5 5,6 5,9 9,2 12,7 11 6 17 9 S 1014,2 32 0,0
19.01.2019 02:00:00 6,6 5,7 6,1 9,2 12,8 11 6 20 11 S 1014,6 38 0,4
19.01.2019 01:00:00 6,8 5,6 6,1 9,2 12,8 12 6 19 10 S 1015,3 9 0,4
19.01.2019 00:00:00 6,8 5,7 6,1 9,2 12,8 10 5 18 10 S 1015,7 46 0,0
18.01.2019 23:00:00 6,7 5,8 5,6 9,1 12,8 8 4 18 10 S 1015,7 40 0,0
18.01.2019 22:00:00 7,1 6,0 6,4 9,2 12,8 14 7 18 10 S 1015,5 36 0,0
18.01.2019 21:00:00 7,1 6,4 5,9 9,1 12,8 11 6 16 9 SSE 1015,6 35 0,0
18.01.2019 20:00:00 7,2 6,3 6,3 9,1 12,7 11 6 16 9 S 1016,0 38 0,0
18.01.2019 19:00:00 7,8 6,6 6,9 9,1 12,8 8 4 13 7 SSW 1016,3 41 0,0
18.01.2019 18:00:00 7,9 6,8 7,3 9,0 12,8 6 3 9 5 SSE 1016,5 58 0,0
18.01.2019 17:00:00 8,3 6,9 7,7 9,0 12,8 2 1 18 10 SSW 1016,7 4,1 0,2
18.01.2019 16:00:00 8,8 7,4 8,2 8,9 12,8 11 6 18 10 S 1016,8 38 0,2
18.01.2019 15:00:00 7,8 6,9 7,7 8,9 12,8 4 2 14 8 WSW 1017,3 4,8 1,6
18.01.2019 14:00:00 7,9 6,8 8,3 8,9 12,8 10 5 15 8 SSW 1017,6 31 0,0
18.01.2019 13:00:00 6,9 6,2 7,0 8,9 12,8 5 3 10 6 S 1018,4 33 0,0
18.01.2019 12:00:00 6,2 5,6 5,7 9,0 12,8 8 4 10 5 S 1018,9 36 0,0
18.01.2019 11:00:00 5,5 5,1 5,3 9,0 12,8 6 3 8 5 S 1019,2 23 0,0
18.01.2019 10:00:00 5,0 4,6 3,9 9,0 12,8 5 3 9 5 S 1019,2 26 0,2
18.01.2019 09:00:00 4,3 3,9 2,6 9,1 12,8 7 4 12 6 NE 1019,0 7 0,8
18.01.2019 08:00:00 3,6 3,0 1,8 9,1 12,8 6 3 9 5 ENE 1018,9 19 0,0
18.01.2019 07:00:00 3,7 3,0 2,9 9,2 12,8 7 4 9 5 SE 1019,0 40 0,0
18.01.2019 06:00:00 5,1 4,4 3,6 9,2 12,8 5 3 16 9 ESE 1019,3 32 0,0
18.01.2019 05:00:00 5,2 4,5 2,5 9,3 12,8 13 7 16 9 S 1019,5 35 0,0
18.01.2019 04:00:00 5,4 4,4 3,3 9,4 12,8 3 1 22 12 SE 1020,0 56 0,4
18.01.2019 03:00:00 5,5 4,8 2,7 9,4 12,8 15 8 23 12 SSW 1020,3 29 0,0
18.01.2019 02:00:00 5,5 4,8 3,8 9,5 12,8 8 4 21 11 S 1020,7 32 0,2
18.01.2019 01:00:00 5,1 4,5 0,9 9,5 12,8 10 6 13 7 SW 1020,9 13 0,0
18.01.2019 00:00:00 5,6 5,2 0,4 9,5 12,8 2 1 21 11 S 1021,2 36 1,4
17.01.2019 23:00:00 1,3 0,9 -1,1 9,6 12,8 0 0 3 2 N 1021,3 0,3 0,0

tt = Température de l'air
td = dewpoint
tt 5cm = Température de l'air 5cm
tt -20cm = Température de l'air -20cm
tt -100cm = Température de l'air -100cm
ff = Vitesse du vent
fx = gusts
dd = Direction du vent
ppp = reduced air pressure
vv = visibility
rr = Quantités de précipitations

stations d'obs. à proximité